Temperature
17 17 17 17 17 17 17 17 17 17 17 17 17 17 17 17 17 17 17 17 17 17 16 16 16 16 16 16 15 15 15 15 15 15 14 14 14 14
17 17 17 17 17 17 17 17 17 17 16 17 17 17 17 17 17 17 17 17 17 16 16 16 16 16 16 15 15 15 15 15 14 14 14 14 14 14
17 17 17 17 17 17 17 17 16 16 16 17 17 17 17 17 17 16 16 16 16 16 16 16 16 16 15 15 15 15 15 15 14 14 14 14 14 14
17 17 17 17 17 17 16 16 16 16 16 16 16 16 16 16 16 16 16 16 16 16 16 15 15 15 15 15 15 14 14 14 14 14 14 14 14 13
17 17 17 17 17 16 16 16 16 16 16 16 16 16 16 16 16 16 16 15 15 15 15 15 15 15 15 14 14 14 14 14 14 14 14 13 13 13
17 17 16 16 16 16 16 16 16 16 16 16 16 16 15 15 15 15 15 15 15 15 15 14 14 14 14 14 14 14 14 13 13 13 13 13 13 13
17 16 16 16 16 16 16 16 16 16 16 16 15 15 15 15 15 15 15 15 15 14 14 14 14 14 14 14 14 13 13 13 13 13 13 13 12 12
16 16 16 16 16 16 16 16 16 16 15 15 15 15 15 15 15 15 15 14 14 14 14 14 14 14 13 13 13 13 13 13 13 13 12 12 12 12
16 16 16 16 16 16 15 15 15 15 15 15 15 15 15 15 15 15 14 14 14 14 14 14 13 13 13 13 13 13 13 12 12 12 12 12 12 12
16 16 16 16 16 15 15 15 15 15 15 15 15 15 15 15 14 14 14 14 14 13 13 13 13 13 13 13 13 12 12 12 12 12 12 12 12 11
16 15 15 15 15 15 15 15 15 15 15 15 15 14 14 14 14 14 13 13 13 13 13 12 12 12 12 12 12 12 12 12 12 12 12 11 11 11
15 15 15 15 15 15 14 14 14 15 15 14 14 14 14 14 14 14 13 13 12 12 12 12 12 12 11 12 12 12 12 12 12 11 11 11 11 11
15 15 15 15 14 14 14 14 14 14 14 14 14 14 14 14 13 13 13 13 12 12 12 12 12 11 11 11 11 11 11 11 11 11 11 11 11 10
14 14 14 14 14 14 14 14 14 14 13 13 13 13 13 13 13 13 13 12 12 12 12 12 11 11 11 11 11 11 11 11 11 11 11 10 10 10
13 13 13 13 13 13 13 13 13 13 13 13 13 13 13 13 13 12 12 12 12 12 11 11 11 11 11 10 10 10 10 10 10 10 10 10 10 10
13 13 13 13 13 13 13 13 13 13 12 12 12 12 12 12 12 12 12 11 11 11 11 11 11 10 10 10 10 10 10 10 10 10 10 10 9 9
12 12 12 12 12 12 12 12 12 12 12 12 12 12 12 12 11 11 11 11 10 10 10 10 10 10 10 10 10 10 9 9 9 9 9 9 9 9
12 12 12 12 12 12 12 12 12 12 12 11 11 11 11 11 11 10 10 10 10 10 10 10 10 9 9 9 9 9 9 9 9 9 9 9 9 9
11 11 11 11 11 11 11 11 11 11 11 11 11 11 10 10 10 10 10 9 9 9 9 9 9 9 9 8 8 8 8 9 9 9 8 8 8 8
11 11 11 11 11 11 11 11 11 11 10 10 10 10 10 10 10 9 9 9 9 9 8 8 8 8 8 8 8 8 8 8 8 8 8 8 8 8
11 10 10 10 10 10 10 10 10 10 10 10 10 10 10 9 9 9 9 9 8 8 8 8 8 8 8 7 7 7 8 7 7 7 8 8 8 8
10 10 10 10 10 10 10 10 10 10 10 10 9 9 9 9 9 9 8 8 8 8 8 8 8 8 7 7 7 7 7 7 7 7 7 7 7 7
9 9 9 9 10 10 9 9 9 9 9 9 9 9 9 8 8 8 8 8 8 8 8 7 7 7 7 7 7 7 7 7 7 6 7 7 6 6
Wind_Speed
4 4 3 3 3 4 3 3 3 2 3 3 2 2 2 2 3 2 3 5 6 6 7 7 7 7 7 7 6 6 6 5 5 5 5 5 5 5
4 4 4 3 3 3 4 4 4 4 3 2 3 2 2 2 2 2 3 4 5 5 6 6 6 7 6 6 6 5 5 4 4 4 4 4 4 4
5 5 5 4 3 3 3 3 4 4 5 3 2 2 2 2 2 1 1 2 3 5 6 6 6 6 5 5 5 5 5 5 4 4 4 4 3 3
6 5 6 4 5 4 3 4 4 5 5 4 2 2 2 2 1 1 1 1 1 3 4 4 5 5 5 5 5 5 5 4 5 4 4 4 3 3
6 6 6 5 5 4 4 4 4 4 4 3 3 2 1 1 1 1 1 1 1 1 2 3 4 4 4 5 5 5 5 5 4 4 4 3 3 3
6 6 6 6 6 6 6 5 4 4 3 3 2 2 2 1 1 1 1 1 1 1 1 2 2 3 4 4 5 5 5 5 4 4 3 2 2 2
5 6 6 7 8 7 6 5 5 4 3 3 3 2 2 2 2 2 2 1 1 1 0 1 1 2 2 3 4 5 5 5 5 4 4 3 3 3
5 5 6 6 8 8 9 8 6 6 5 4 4 4 4 4 3 3 2 1 2 1 1 2 2 2 3 4 5 5 5 6 5 5 5 4 4 4
5 5 5 5 6 5 6 7 7 9 8 6 6 6 5 5 4 4 3 3 3 2 2 2 2 3 3 4 5 5 5 5 5 6 6 5 5 5
5 5 5 5 5 5 4 4 5 5 7 6 6 7 6 5 6 5 4 2 1 2 3 2 2 2 2 3 5 6 6 5 5 6 6 5 5 5
4 4 4 5 5 5 4 5 5 4 4 5 6 6 6 6 5 3 3 2 2 2 2 2 2 2 2 2 3 5 5 5 5 5 5 5 6 5
4 4 4 5 5 4 5 5 6 5 3 2 2 3 3 4 6 5 5 4 2 2 2 3 2 1 1 1 1 2 2 4 5 5 6 6 5 3
5 4 4 6 6 6 6 6 7 5 3 3 3 2 2 2 2 3 4 4 4 3 3 3 2 2 2 2 2 2 2 2 3 3 5 6 6 5
5 5 5 6 7 6 5 6 6 4 2 2 2 2 2 3 2 2 3 3 3 3 3 4 2 3 3 2 2 2 2 2 2 3 3 4 5 6
5 6 6 6 5 5 5 5 4 3 3 3 3 3 3 3 2 1 1 1 1 0 2 3 3 3 3 3 3 2 2 2 2 2 2 2 3 3
4 4 4 4 4 3 2 3 3 3 4 4 3 3 2 2 2 2 1 1 1 1 1 0 2 3 2 3 3 3 2 2 1 2 2 3 3 4
2 1 1 1 1 1 1 1 2 2 3 3 3 2 2 2 2 1 1 1 1 1 1 2 2 1 1 2 2 2 2 2 2 2 2 3 3 4
2 2 2 3 3 3 3 2 2 3 3 3 3 3 3 2 2 1 1 2 2 2 1 1 0 1 1 1 1 2 1 2 2 2 2 2 3 3
3 3 4 4 4 4 3 3 4 3 3 3 3 3 3 3 3 2 2 2 2 2 1 1 1 1 2 3 1 0 1 2 1 1 2 2 3 4
3 4 5 5 4 4 4 4 3 3 3 3 4 3 4 3 3 3 3 3 3 2 2 1 2 2 4 3 2 2 3 2 1 2 2 2 2 3
4 4 4 4 4 4 4 4 4 4 4 3 4 4 4 4 4 4 3 4 4 3 4 3 3 2 1 1 1 2 2 3 3 2 2 2 2 2
5 5 4 5 4 4 4 4 4 4 4 4 4 4 4 4 5 5 4 5 4 4 4 3 2 2 2 2 3 2 2 2 2 2 2 3 2 2
5 5 4 4 4 3 3 4 4 4 4 4 4 4 4 4 4 4 4 4 4 4 3 3 2 2 2 3 2 2 2 2 1 1 2 4 4 5
Wind_Direction
228 227 225 229 219 223 216 201 204 259 280 281 289 307 302 282 279 251 242 242 233 227 224 219 215 213 208 206 210 217 227 236 242 250 255 261 269 274
231 233 241 238 227 221 218 213 209 212 246 261 258 281 300 303 292 258 246 229 227 225 220 217 213 207 204 205 211 213 219 228 236 245 253 262 270 273
239 233 245 245 242 235 224 216 215 210 237 259 249 268 264 297 315 298 263 233 229 222 219 215 210 206 201 202 207 215 218 223 232 241 249 254 261 272
243 235 243 243 238 235 224 225 223 217 223 248 253 253 249 274 282 276 286 273 250 228 217 211 212 211 209 208 211 215 219 225 236 243 246 250 251 261
243 237 240 236 245 239 229 232 231 226 220 230 246 247 263 288 300 294 297 322 288 224 201 203 206 205 207 213 216 220 222 225 234 240 243 245 248 252
249 243 240 235 241 244 240 235 227 218 211 222 235 247 259 260 234 247 278 298 290 233 183 191 202 208 213 218 220 222 223 221 220 226 225 236 248 253
257 249 244 238 234 233 237 229 217 214 216 225 231 232 241 231 231 220 238 273 285 222 238 242 216 231 233 229 228 229 228 224 223 228 234 234 237 243
262 261 254 250 249 239 233 224 210 212 217 222 228 236 240 235 223 216 207 219 246 216 212 258 225 242 243 236 238 237 232 226 225 230 233 234 236 237
257 264 267 261 242 241 242 238 232 226 213 208 224 232 230 223 206 214 215 220 238 222 204 237 230 243 249 245 238 237 235 233 236 239 238 236 234 232
248 251 258 268 256 235 234 236 236 233 227 222 227 232 230 215 204 207 212 215 265 239 204 221 232 245 251 248 240 234 235 241 246 245 241 235 233 234
259 261 262 265 259 231 221 229 238 244 242 230 231 234 228 207 184 165 170 190 255 262 213 210 240 268 269 263 245 234 230 236 246 244 238 238 238 236
275 273 264 265 264 226 221 224 234 240 226 218 223 234 223 200 185 190 192 200 228 239 209 196 220 231 255 253 264 261 240 243 244 246 240 239 232 226
265 272 275 269 260 244 228 228 231 225 212 205 207 208 206 204 206 210 209 205 210 233 211 190 208 217 224 250 270 270 253 249 246 250 241 235 226 214
256 264 270 268 255 245 235 233 222 203 190 191 206 221 226 229 226 217 212 213 216 225 201 190 209 214 222 251 263 263 272 266 244 246 247 237 231 226
257 262 265 263 249 241 233 216 199 191 191 199 217 234 238 235 223 196 176 170 150 150 192 209 206 210 217 233 244 254 273 281 256 250 253 239 235 229
269 272 263 250 243 236 219 206 203 200 198 212 224 231 224 214 216 198 191 191 209 307 8 44 189 187 217 238 233 253 260 260 276 281 269 264 249 228
244 262 276 255 246 248 248 230 216 204 206 215 208 206 205 210 229 210 186 186 204 229 307 3 25 86 220 215 224 237 265 283 276 283 281 279 269 246
203 238 242 241 243 238 236 240 233 225 223 214 206 199 197 201 212 209 192 197 215 231 239 278 41 36 27 358 224 229 243 270 295 280 264 269 276 270
220 244 243 245 247 244 237 236 243 240 223 213 207 206 205 204 196 203 206 207 215 220 221 207 196 186 229 263 279 208 247 299 306 306 289 271 274 282
243 246 249 250 251 249 246 242 240 240 231 223 215 208 208 206 201 204 204 206 207 210 216 218 221 219 224 240 256 279 256 257 257 275 292 301 292 287
260 258 254 250 251 251 247 239 232 231 233 228 222 215 210 205 209 210 208 201 202 208 216 230 238 229 217 170 227 286 296 278 252 250 259 280 296 291
267 261 257 253 249 247 245 240 234 228 226 229 231 227 220 211 207 206 209 210 212 214 224 230 206 184 184 209 238 268 304 330 319 287 260 245 254 255
265 263 263 260 253 245 238 233 233 233 229 230 229 226 220 215 211 205 207 212 208 208 207 210 205 200 211 215 229 251 276 307 324 330 324 318 273 264
Height
1549 1550 1550 1550 1550 1549 1549 1548 1548 1546 1545 1545 1545 1544 1543 1543 1542 1541 1541 1541 1541 1541 1540 1540 1540 1540 1540 1540 1540 1540 1539 1539 1538 1538 1537 1536 1536 1535
1546 1546 1546 1546 1546 1546 1545 1545 1545 1544 1543 1542 1542 1541 1541 1540 1539 1539 1538 1538 1538 1537 1537 1537 1537 1537 1536 1536 1536 1536 1536 1535 1535 1534 1534 1533 1532 1532
1542 1542 1542 1542 1542 1542 1542 1542 1541 1541 1540 1539 1539 1538 1538 1537 1537 1536 1535 1535 1534 1534 1533 1533 1533 1533 1533 1533 1533 1533 1533 1532 1532 1531 1531 1530 1529 1529
1538 1538 1538 1538 1538 1538 1538 1537 1537 1537 1536 1535 1535 1535 1534 1534 1533 1533 1532 1532 1531 1531 1531 1530 1530 1530 1530 1530 1530 1530 1530 1529 1529 1528 1528 1527 1526 1525
1533 1533 1533 1533 1533 1533 1533 1533 1533 1533 1532 1532 1531 1531 1530 1530 1530 1529 1529 1528 1528 1528 1528 1527 1527 1528 1528 1527 1527 1527 1527 1526 1526 1525 1524 1524 1523 1522
1528 1528 1528 1528 1528 1528 1529 1529 1529 1529 1528 1528 1527 1527 1527 1526 1526 1525 1525 1525 1525 1525 1525 1525 1525 1525 1524 1524 1524 1524 1523 1523 1522 1522 1521 1520 1520 1519
1523 1523 1523 1523 1523 1523 1524 1523 1524 1524 1524 1524 1524 1523 1522 1522 1522 1521 1521 1521 1521 1521 1521 1521 1521 1521 1521 1521 1521 1520 1520 1519 1519 1518 1518 1517 1516 1516
1518 1518 1518 1518 1518 1518 1518 1518 1519 1519 1519 1519 1519 1518 1518 1518 1518 1518 1518 1517 1517 1518 1517 1518 1518 1518 1518 1517 1517 1517 1516 1516 1515 1515 1514 1513 1513 1512
1514 1513 1513 1513 1513 1513 1513 1513 1514 1514 1515 1515 1514 1514 1514 1514 1514 1514 1514 1513 1513 1514 1514 1513 1514 1514 1514 1513 1513 1513 1513 1512 1512 1511 1511 1510 1509 1509
1509 1509 1508 1508 1508 1508 1508 1508 1509 1509 1510 1510 1510 1510 1510 1510 1510 1510 1510 1510 1510 1510 1511 1510 1510 1510 1510 1510 1509 1509 1509 1509 1508 1508 1507 1506 1506 1505
1504 1504 1503 1503 1503 1503 1503 1503 1503 1504 1505 1505 1505 1506 1506 1506 1506 1506 1506 1506 1505 1506 1506 1506 1506 1506 1506 1506 1506 1506 1506 1505 1505 1504 1504 1503 1502 1502
1499 1499 1499 1498 1498 1498 1498 1498 1498 1499 1500 1500 1501 1501 1502 1502 1502 1502 1502 1501 1501 1501 1502 1502 1502 1502 1502 1502 1502 1502 1502 1501 1501 1500 1500 1499 1499 1498
1494 1494 1494 1494 1494 1493 1493 1494 1494 1494 1494 1495 1495 1496 1497 1497 1497 1497 1498 1497 1497 1497 1498 1498 1498 1498 1498 1497 1497 1498 1497 1497 1497 1496 1495 1495 1495 1494
1489 1489 1489 1489 1488 1489 1488 1489 1489 1489 1489 1490 1490 1491 1491 1492 1492 1493 1493 1493 1493 1493 1494 1494 1494 1494 1494 1493 1493 1493 1493 1493 1492 1492 1491 1491 1490 1490
1484 1483 1483 1483 1483 1483 1483 1484 1484 1484 1484 1484 1485 1485 1486 1487 1488 1488 1488 1489 1489 1489 1489 1490 1490 1490 1490 1489 1489 1489 1488 1488 1488 1488 1487 1486 1486 1485
1479 1478 1478 1478 1478 1479 1479 1479 1479 1479 1479 1480 1480 1481 1482 1482 1483 1483 1483 1484 1484 1485 1485 1485 1485 1485 1485 1485 1485 1484 1485 1484 1484 1483 1483 1482 1482 1481
1474 1474 1473 1473 1473 1474 1474 1474 1475 1475 1475 1476 1476 1476 1476 1477 1478 1478 1479 1479 1479 1479 1480 1480 1481 1481 1481 1481 1481 1480 1480 1480 1480 1479 1479 1478 1478 1478
1470 1469 1469 1469 1469 1469 1469 1470 1470 1470 1471 1471 1471 1472 1472 1472 1473 1474 1474 1474 1474 1475 1475 1476 1476 1476 1477 1477 1478 1477 1477 1476 1476 1476 1475 1475 1474 1474
1466 1465 1465 1464 1464 1464 1465 1465 1465 1466 1466 1467 1467 1467 1467 1468 1468 1469 1469 1469 1470 1470 1471 1472 1472 1472 1472 1473 1473 1474 1473 1473 1472 1472 1472 1471 1470 1470
1460 1460 1460 1460 1460 1460 1460 1461 1461 1461 1462 1462 1462 1462 1463 1463 1463 1464 1464 1465 1466 1466 1467 1468 1468 1468 1468 1469 1470 1470 1470 1469 1469 1468 1468 1468 1467 1467
1456 1455 1456 1456 1456 1456 1456 1456 1456 1456 1457 1457 1458 1458 1458 1458 1458 1459 1459 1460 1461 1462 1463 1464 1465 1466 1466 1467 1467 1466 1467 1467 1466 1465 1464 1464 1463 1463
1452 1452 1451 1451 1451 1451 1451 1451 1451 1451 1452 1452 1452 1453 1453 1453 1453 1454 1455 1455 1456 1457 1459 1460 1461 1462 1463 1463 1462 1462 1462 1463 1463 1462 1462 1462 1460 1460
1448 1448 1447 1447 1446 1446 1446 1446 1446 1446 1446 1447 1447 1447 1448 1448 1449 1449 1450 1451 1452 1453 1454 1455 1457 1458 1459 1459 1459 1459 1459 1459 1458 1458 1459 1459 1458 1458